Powrót do katalogu

OPS 0856 DEB

LostPO
NORAD 25829·DEBRIS·🇺🇸 United States

Wystrzelony Aug 19, 1966 z Vandenberg Space Force Base

Loading…

Następne Przeloty (najbliższe 24 godziny)

TLE

NieaktualneSource: Space-Track

Epoka: Nov 7, 2006, 02:21 UTC

1 25829U 66077W   06311.09817431 +.00000002 +00000-0 +10000-3 0  9992
2 25829 089.9855 199.9710 0283220 185.6620 173.4707 08.61744788292301

Śledź OPS 0856 DEB w czasie rzeczywistym z AllMySat

Download on the App Store